Location: Izdebno
(52.6670°N, 16.2170°E)
Time: 03:58:00
(UTC+02:00)

Transit 4A - Pass Details

Date: 23 February 2024
Orbit: 871 x 972 km, 66.8° (Epoch: 22 April)

Event Time Altitude Azimuth Distance (km) Brightness Sun altitude
Rises 11:47:03 0° 313° (NW) 3,498 10.5 27.2°
Reaches altitude 10° 11:50:21 10° 295° (WNW) 2,542 10.0 27.3°
Maximum altitude 11:54:05 18° 255° (WSW) 2,031 10.0 27.3°
Drops below altitude 10° 11:57:47 10° 215° (SW) 2,516 11.1 27.4°
Sets 12:01:02 0° 196° (SSW) 3,448 12.0 27.4°
